| time (UTC) | temp C | wind direction | speed KPH | gust KPH | rain 1hr cm | rain 24hr cm | rain mn cm | humidity % | barometer mb |
| 20260504234524 | 17 | 324 | 6.4 | 17.7 | 0.00 | 0.00 | 0.00 | 35 | 1005.0 |
| 20260504233027 | 17 | 30 | 14.5 | 22.5 | 0.00 | 0.00 | 0.00 | 35 | 1004.9 |
| 20260504231522 | 17 | 31 | 9.7 | 22.5 | 0.00 | 0.00 | 0.00 | 35 | 1004.8 |
| 20260504230022 | 17 | 65 | 11.3 | 24.1 | 0.00 | 0.00 | 0.00 | 35 | 1004.5 |
| 20260504224527 | 17 | 26 | 11.3 | 24.1 | 0.00 | 0.00 | 0.00 | 35 | 1004.5 |
| 20260504223021 | 17 | 92 | 8.0 | 19.3 | 0.00 | 0.00 | 0.00 | 34 | 1004.4 |
| 20260504221523 | 17 | 71 | 12.9 | 24.1 | 0.00 | 0.00 | 0.00 | 34 | 1004.3 |
| 20260504220020 | 18 | 84 | 16.1 | 29.0 | 0.00 | 0.00 | 0.00 | 33 | 1004.3 |
| 20260504214524 | 17 | 39 | 12.9 | 29.0 | 0.00 | 0.00 | 0.00 | 33 | 1004.3 |
| 20260504213021 | 18 | 47 | 9.7 | 24.1 | 0.00 | 0.00 | 0.00 | 34 | 1004.3 |
| 20260504211521 | 18 | 62 | 14.5 | 22.5 | 0.00 | 0.00 | 0.00 | 33 | 1004.3 |
| 20260504210032 | 18 | 44 | 11.3 | 24.1 | 0.00 | 0.00 | 0.00 | 34 | 1004.5 |
| 20260504204529 | 18 | 5 | 14.5 | 27.4 | 0.00 | 0.00 | 0.00 | 33 | 1004.6 |
| 20260504203023 | 18 | 52 | 12.9 | 35.4 | 0.00 | 0.00 | 0.00 | 34 | 1004.6 |
| 20260504201514 | 18 | 48 | 8.0 | 25.7 | 0.00 | 0.00 | 0.00 | 34 | 1004.4 |
| 20260504200014 | 18 | 65 | 14.5 | 30.6 | 0.00 | 0.00 | 0.00 | 33 | 1004.3 |
| 20260504194514 | 17 | 56 | 16.1 | 35.4 | 0.00 | 0.00 | 0.00 | 33 | 1004.4 |
| 20260504193013 | 18 | 23 | 14.5 | 27.4 | 0.00 | 0.00 | 0.00 | 34 | 1004.5 |
| 20260504191512 | 17 | 59 | 16.1 | 27.4 | 0.00 | 0.00 | 0.00 | 33 | 1004.4 |
| 20260504190011 | 17 | 35 | 17.7 | 40.2 | 0.00 | 0.00 | 0.00 | 33 | 1004.5 |
| 20260504184510 | 18 | 57 | 14.5 | 30.6 | 0.00 | 0.00 | 0.00 | 32 | 1004.2 |
| 20260504183010 | 17 | 40 | 19.3 | 33.8 | 0.00 | 0.00 | 0.00 | 33 | 1004.1 |
| 20260504181508 | 17 | 54 | 14.5 | 35.4 | 0.00 | 0.00 | 0.00 | 34 | 1004.0 |
| 20260504180008 | 17 | 342 | 12.9 | 32.2 | 0.00 | 0.00 | 0.00 | 34 | 1003.9 |
| 20260504174508 | 17 | 16 | 16.1 | 30.6 | 0.00 | 0.00 | 0.00 | 35 | 1003.9 |
| 20260504173006 | 17 | 42 | 14.5 | 32.2 | 0.00 | 0.00 | 0.00 | 35 | 1003.5 |
| 20260504171504 | 17 | 42 | 14.5 | 33.8 | 0.00 | 0.00 | 0.00 | 37 | 1003.5 |
| 20260504081535 | 6 | 107 | 3.2 | 6.4 | 0.00 | 0.00 | 0.00 | 71 | 1003.7 |
| 20260504050009 | 11 | 108 | 0.0 | 3.2 | 0.00 | 0.00 | 0.00 | 56 | 1005.0 |
| 20260504044514 | 11 | 108 | 1.6 | 4.8 | 0.00 | 0.00 | 0.00 | 53 | 1005.0 |
| 20260504043013 | 12 | 108 | 0.0 | 3.2 | 0.00 | 0.00 | 0.00 | 51 | 1005.1 |
| 20260504041530 | 13 | 108 | 1.6 | 4.8 | 0.00 | 0.00 | 0.00 | 48 | 1005.2 |
| 20260504040015 | 14 | 108 | 0.0 | 3.2 | 0.00 | 0.00 | 0.00 | 47 | 1005.3 |
| 20260504034510 | 15 | 108 | 0.0 | 3.2 | 0.00 | 0.00 | 0.00 | 44 | 1005.2 |
| 20260504033007 | 15 | 108 | 0.0 | 4.8 | 0.00 | 0.00 | 0.00 | 44 | 1005.0 |
| 20260504031507 | 15 | 108 | 1.6 | 4.8 | 0.00 | 0.00 | 0.00 | 44 | 1004.9 |
| 20260504030006 | 15 | 109 | 1.6 | 8.0 | 0.00 | 0.00 | 0.00 | 43 | 1004.9 |
| 20260504024506 | 16 | 107 | 0.0 | 11.3 | 0.00 | 0.00 | 0.00 | 44 | 1005.1 |
| 20260504023006 | 16 | 92 | 3.2 | 16.1 | 0.00 | 0.00 | 0.00 | 43 | 1005.4 |
| 20260504021504 | 16 | 97 | 9.7 | 14.5 | 0.00 | 0.00 | 0.00 | 42 | 1005.4 |
| 20260504020008 | 17 | 97 | 4.8 | 12.9 | 0.00 | 0.00 | 0.00 | 42 | 1005.6 |
| 20260504014503 | 17 | 40 | 3.2 | 8.0 | 0.00 | 0.00 | 0.00 | 40 | 1005.7 |
| 20260504013003 | 17 | 71 | 9.7 | 17.7 | 0.00 | 0.00 | 0.00 | 40 | 1006.0 |
| 20260504011502 | 17 | 14 | 12.9 | 22.5 | 0.00 | 0.00 | 0.00 | 39 | 1005.5 |
| 20260504010002 | 17 | 5 | 12.9 | 29.0 | 0.00 | 0.00 | 0.00 | 38 | 1004.7 |
| 20260504004505 | 18 | 42 | 14.5 | 37.0 | 0.00 | 0.00 | 0.00 | 36 | 1004.3 |
| 20260504003001 | 22 | 328 | 4.8 | 11.3 | 0.00 | 0.00 | 0.00 | 19 | 1004.0 |
| 20260504001601 | 22 | 213 | 3.2 | 25.7 | 0.00 | 0.00 | 0.00 | 20 | 1004.1 |
| 20260504000107 | 23 | 346 | 3.2 | 8.0 | 0.00 | 0.00 | 0.00 | 18 | 1004.0 |